📊 Raw Sensor Data

Showing records 50026 to 50050 of 85,128 total

ID Distance (ft) Battery V Battery A Int Temp (°F) Int Humid (%) Ext Temp (°F) Solar V RSSI SNR Time Stamp
35115 15.0 3.99 -5 39 41 40 0.10 -80 6 03/16/2025 03:45 AM
35114 15.0 3.99 -5 40 40 41 0.10 -79 8 03/16/2025 03:30 AM
35113 15.0 4.04 -5 42 40 43 0.00 -79 8 03/16/2025 03:15 AM
35112 15.0 3.99 -5 43 40 43 0.10 -80 8 03/16/2025 03:00 AM
35111 15.0 3.99 -5 44 39 45 0.00 -80 8 03/16/2025 02:45 AM
35110 15.0 3.99 -5 43 39 45 0.00 -80 8 03/16/2025 02:30 AM
35109 15.0 3.99 -5 43 39 45 0.10 -80 7 03/16/2025 02:15 AM
35108 15.0 4.05 -5 42 39 44 0.00 -80 7 03/16/2025 02:00 AM
35107 15.0 3.99 -5 42 39 44 0.10 -80 8 03/16/2025 01:45 AM
35106 15.0 3.99 -5 42 39 44 0.10 -79 8 03/16/2025 01:30 AM
35105 15.0 4.00 -5 42 40 44 0.00 -79 8 03/16/2025 01:15 AM
35104 15.0 4.00 -5 42 40 44 0.00 -79 8 03/16/2025 01:00 AM
35103 -- 4.05 -5 41 40 42 0.00 -80 8 03/16/2025 12:45 AM
35102 -- 4.00 -5 41 40 42 0.10 -81 8 03/16/2025 12:31 AM
35101 15.1 4.00 -5 41 40 42 0.00 -81 8 03/16/2025 12:15 AM
35100 15.1 4.05 -5 42 41 42 0.10 -81 8 03/16/2025 12:00 AM
35099 -- 4.00 -5 43 40 42 0.10 -83 8 03/15/2025 11:45 PM
35098 -- 4.00 -5 44 40 46 0.00 -81 7 03/15/2025 11:30 PM
35097 -- 4.00 -5 44 40 46 0.00 -81 8 03/15/2025 11:15 PM
35096 -- 4.05 -5 45 40 46 0.10 -81 7 03/15/2025 11:00 PM
35095 -- 4.00 -5 46 40 48 0.00 -81 8 03/15/2025 10:45 PM
35094 15.1 4.01 -5 46 40 47 0.00 -80 7 03/15/2025 10:30 PM
35093 -- 4.06 -5 47 40 49 0.00 -80 8 03/15/2025 10:15 PM
35092 15.0 4.01 -5 48 40 50 0.00 -79 8 03/15/2025 10:00 PM
35091 -- 4.06 -5 48 40 49 0.00 -81 8 03/15/2025 09:45 PM